Regional Weather Roundup
Issued by NWS

Home | Current Version | Previous Version | Graphics & Text | Print | Product List | Glossary Off
Versions: 1 2 3 4 5 6 7 8 9 10 11 12 13 14 15 16 17 18 19 20 21 22 23 24 25 26 27 28 29 30 31 32 33 34 35 36 37 38 39 40 41 42 43 44 45 46 47 48 49 50

340
ASUS43 KLSX 080710
RWRMO

WEATHER SUMMARY FOR MISSOURI
NATIONAL WEATHER SERVICE SPRINGFIELD MO
100 AM CST MON FEB 08 2016

NOTE: "FAIR" INDICATES FEW OR NO CLOUDS BELOW 12,000 FEET WITH NO
       SIGNIFICANT WEATHER AND/OR OBSTRUCTIONS TO VISIBILITY.
       CURRENT SKY AND/OR WEATHER CONDITIONS ARE NOT AVAILABLE FOR
       CHILLICOTHE AND FARMINGTON.

MOZ001>031-035>038-043-044-053-054-080800-
...NORTHERN AND WESTERN MISSOURI...

CITY           SKY/WX    TMP DP  RH WIND       PRES   REMARKS
KANSAS CTY INT CLOUDY    36  21  54 NW31G43   29.98S WCI  23
KANSAS C DTWN  CLOUDY    38  23  55 NW20G33   29.99F WCI  28
LEE`S SUMMIT   CLOUDY    37  25  61 NW18G30   29.98F WCI  27
ST JOSEPH      CLOUDY    34  22  61 NW38G52   30.00R WCI  19
CHILLICOTHE      N/A     35  23  61 NW14G24   29.93F WCI  26
KIRKSVILLE     CLOUDY    32  20  61 NW15G24   29.84S WCI  22

$$
MOZ066>068-077>081-088>096-101>105-080800-
...SOUTHWEST MISSOURI...

CITY           SKY/WX    TMP DP  RH WIND       PRES   REMARKS
SPRINGFIELD    CLOUDY    39  22  50 NW10      29.99F
JOPLIN         CLEAR     37  21  52 W15       30.07F WCI  28

$$
MOZ032>034-039>042-045>050-055>058-069>072-080800-
...CENTRAL MISSOURI...

CITY           SKY/WX    TMP DP  RH WIND       PRES   REMARKS
COLUMBIA       CLOUDY    33  31  92 W15       29.88F WCI  23
JEFFERSON CITY FLURRIES  37  29  72 NW22G35   29.90F WCI  26
ROLLA          CLOUDY    36  26  67 W20       29.86F WCI  25
SEDALIA        CLOUDY    37  24  59 NW18G31   29.95S WCI  27
WHITEMAN AFB   CLOUDY    36  27  69 NW18G25   29.94F WCI  25
WARRENSBURG    CLOUDY    36  25  64 W21G30    29.97F WCI  24
OSAGE BEACH    CLOUDY    37  23  56 W12G23    29.93F WCI  30

$$
MOZ051-052-059>065-080800-
...EAST CENTRAL MISSOURI...

CITY           SKY/WX    TMP DP  RH WIND       PRES   REMARKS
ST LOUIS INTL  LGT RAIN  40  29  64 W20G25    29.83F
SPIRIT OF STL  CLOUDY    38  30  73 W17G24    29.84S WCI  28
ST CHARLES     CLOUDY    38  30  73 W21       29.82F WCI  28

$$
MOZ072>076-082>087-097>100-106>115-080800-
...SOUTH CENTRAL AND SOUTHEAST MISSOURI...

CITY           SKY/WX    TMP DP  RH WIND       PRES   REMARKS
CAPE GIRARDEAU PTCLDY    35  28  75 W10       29.85F WCI  27
FARMINGTON     CLOUDY    41  23  48 W15G24    29.84F
POPLAR BLUFF   PTCLDY    44  22  41 W9        29.88F
WEST PLAINS    CLEAR     39  18  42 NW15G28   29.93F

$$




USA.gov is the U.S. government's official web portal to all federal, state and local government web resources and services.